Flag for U.S.A. Weather past 2 weeks in Orlando, Florida, U.S.A.

Now
55 °F

Sunny.


Feels Like: 55 °F
Forecast: 50 / 71 °F
Wind: No wind

Location: Orlando Executive Airport

Current Time: Dec 19, 2014 at 8:57:29 AM

Latest Report: Dec 19, 2014 at 7:53 AM


Visibility: 10 mi

Pressure: 30.14 "Hg

Humidity: 87%

Dew point: 51 °F

Location of OrlandoLocation

Historic Weather in Orlando — Graph

°F

Orlando temperature yesterday

Maximum temperature yesterday: 70 °F (at 2:53 PM)
Minimum temperature yesterday: 49 °F (at 5:53 AM)
Average temperature yesterday: 59 °F

Past Weeks' High & Low Weather Summary

 TemperatureHumidityPressure
High81 °F (Dec 4, 1:53 PM)100% (Dec 4, 6:53 AM)30.29 "Hg (Dec 4, 6:53 AM)
Low43 °F (Dec 13, 3:53 AM)21% (Dec 13, 1:53 PM)30.01 "Hg (Dec 9, 2:53 PM)
Average60 °F71%30.15 "Hg
* Reported Dec 4 6:53 AM — Dec 19 6:53 AM, Orlando, Weather by CustomWeather, © 2014

Note: Actual official high and low records may vary slightly from our data, if they occured in-between our weather recording intervals... More about our weather records

Advertising

Orlando weather history for previous 24 hours

 ConditionsComfort  
Time TempWeatherWind HumidityBarometerVisibility
6:53 AM
Dec 19
53 °FClear.3 mph86%30.13 "Hg10 mi
5:53 AM53 °FClear.No wind86%30.11 "Hg10 mi
4:53 AM54 °FClear.No wind86%30.11 "Hg10 mi
3:53 AM54 °FClear.No wind83%30.11 "Hg10 mi
2:53 AM56 °FClear.3 mph81%30.12 "Hg10 mi
1:53 AM56 °FClear.No wind77%30.14 "Hg10 mi
12:53 AM58 °FClear.3 mph75%30.14 "Hg10 mi
11:53 PM
Dec 18
58 °FClear.No wind75%30.14 "Hg10 mi
10:53 PM57 °FClear.No wind78%30.16 "Hg10 mi
9:53 PM58 °FClear.3 mph72%30.14 "Hg10 mi
8:53 PM57 °FClear.No wind74%30.13 "Hg10 mi
7:53 PM59 °FClear.No wind64%30.13 "Hg10 mi
6:53 PM60 °FClear.No wind60%30.13 "Hg10 mi
5:53 PM64 °FClear.6 mph52%30.13 "Hg10 mi
4:53 PM67 °FSunny.7 mph45%30.10 "Hg10 mi
3:53 PM69 °FSunny.5 mph45%30.10 "Hg10 mi
2:53 PM70 °FSunny.No wind44%30.11 "Hg10 mi
1:53 PM69 °FSunny.5 mph42%30.12 "Hg10 mi
12:53 PM69 °FSunny.6 mph44%30.16 "Hg10 mi
11:53 AM66 °FSunny.7 mph49%30.19 "Hg10 mi
10:53 AM65 °FSunny.5 mph52%30.20 "Hg10 mi
9:53 AM59 °FSunny.No wind62%30.20 "Hg10 mi
8:53 AM54 °FSunny.5 mph74%30.19 "Hg10 mi
Weather by CustomWeather, © 2014

See weather overviewHow to use our weather pages